EW7144 Weather Reports


time (UTC)temp
C
wind
direction
speed
KPH
gust
KPH
rain 1hr
cm
rain 24hr
cm
rain mn
cm
humidity
%
barometer
mb
20210414113905 11 212 1.6 4.8 0.03 0.41 0.41 90 1007.2
20210414113410 11 231 3.2 4.8 0.03 0.41 0.41 89 1007.2
20210414113025 11 233 1.6 4.8 0.00 0.38 0.38 89 1007.3
20210414112856 11 266 0.0 3.2 0.00 0.38 0.38 89 1007.3
20210414112209 11 266 0.0 1.6 0.00 0.38 0.38 89 1007.3
20210414111418 11 266 0.0 1.6 0.00 0.38 0.38 89 1007.3
20210414110905 11 266 0.0 3.2 0.00 0.38 0.38 89 1007.4
20210414110525 11 267 1.6 4.8 0.00 0.38 0.38 89 1007.3
20210414110209 11 273 0.0 3.2 0.00 0.38 0.38 89 1007.4
20210414105950 11 273 3.2 4.8 0.00 0.38 0.38 89 1007.3
20210414105113 11 273 1.6 1.6 0.00 0.38 0.38 89 1007.1
20210414104411 11 273 0.0 3.2 0.00 0.38 0.38 89 1007.1
20210414103906 11 273 0.0 3.2 0.00 0.38 0.38 88 1007.0
20210414103419 11 273 1.6 1.6 0.00 0.38 0.38 88 1006.9
20210414102941 11 275 0.0 1.6 0.00 0.38 0.38 88 1006.8
20210414102815 11 275 0.0 1.6 0.00 0.38 0.38 88 1006.9
20210414102127 11 275 0.0 3.2 0.00 0.38 0.38 88 1006.9
20210414101408 11 275 1.6 3.2 0.00 0.38 0.38 88 1006.8
20210414100905 11 263 0.0 3.2 0.00 0.38 0.38 88 1006.8
20210414100412 11 267 1.6 4.8 0.00 0.38 0.38 88 1006.9
20210414095943 11 274 3.2 4.8 0.00 0.38 0.38 88 1006.9
20210414095802 11 276 1.6 4.8 0.00 0.38 0.38 88 1007.0
20210414095111 11 242 1.6 3.2 0.00 0.38 0.38 88 1007.0
20210414094412 11 205 0.0 1.6 0.00 0.38 0.38 88 1007.0
20210414093905 11 215 0.0 3.2 0.00 0.38 0.38 88 1006.9
20210414093417 11 202 1.6 3.2 0.00 0.38 0.38 88 1006.9
20210414092923 11 214 3.2 4.8 0.00 0.38 0.38 88 1006.9
20210414092754 11 210 1.6 4.8 0.00 0.38 0.38 87 1007.0
20210414092128 11 24 0.0 3.2 0.00 0.38 0.38 87 1007.1
20210414091405 12 25 1.6 3.2 0.00 0.38 0.38 87 1007.0
20210414090906 12 25 1.6 3.2 0.00 0.38 0.38 87 1006.9
20210414090408 12 24 3.2 4.8 0.00 0.38 0.38 87 1006.8
20210414085912 12 354 1.6 3.2 0.00 0.38 0.38 87 1006.9
20210414085754 12 355 1.6 3.2 0.00 0.38 0.38 87 1006.8
20210414084939 12 322 0.0 1.6 0.00 0.38 0.38 86 1006.8
20210414084418 12 328 0.0 1.6 0.00 0.38 0.38 86 1006.8
20210414083905 12 324 0.0 1.6 0.00 0.38 0.38 86 1006.8
20210414083418 12 322 3.2 4.8 0.00 0.38 0.38 85 1006.7
20210414082904 12 8 0.0 1.6 0.00 0.38 0.38 85 1006.7
20210414082710 12 8 1.6 3.2 0.00 0.38 0.38 85 1006.6
20210414082012 12 57 0.0 3.2 0.00 0.38 0.38 85 1006.6
20210414081412 12 69 0.0 1.6 0.00 0.38 0.38 85 1006.5
20210414080915 12 68 1.6 3.2 0.00 0.38 0.38 84 1006.5
20210414080417 12 51 0.0 1.6 0.00 0.38 0.38 84 1006.5
20210414075909 12 51 0.0 1.6 0.00 0.38 0.38 83 1006.4
20210414075719 12 51 1.6 3.2 0.00 0.38 0.38 82 1006.3
20210414075139 13 51 0.0 1.6 0.00 0.38 0.38 82 1006.2
20210414074419 13 51 0.0 1.6 0.00 0.38 0.38 81 1006.2
20210414073912 13 51 1.6 3.2 0.00 0.38 0.38 81 1006.0
20210414073419 13 56 1.6 4.8 0.00 0.41 0.38 80 1005.9
20210414072905 13 100 3.2 4.8 0.00 0.41 0.38 80 1005.9
20210414072819 13 121 4.8 11.3 0.00 0.41 0.38 81 1005.7
20210414072145 13 113 8.0 12.9 0.00 0.41 0.38 81 1005.6
20210414071415 13 111 9.7 14.5 0.00 0.41 0.38 81 1005.6
20210414070904 13 108 11.3 16.1 0.00 0.41 0.38 81 1005.5
20210414070414 13 101 9.7 14.5 0.00 0.41 0.38 81 1005.6
20210414070049 13 110 11.3 16.1 0.00 0.41 0.38 80 1005.5
20210414065838 13 116 9.7 14.5 0.00 0.41 0.38 80 1005.4
20210414065138 14 116 8.0 11.3 0.00 0.41 0.38 79 1005.4
20210414064405 14 116 8.0 9.7 0.00 0.41 0.38 79 1005.3
20210414063908 14 116 4.8 9.7 0.00 0.41 0.38 79 1005.4
20210414063416 14 123 3.2 4.8 0.00 0.41 0.38 78 1005.3
20210414062933 14 123 3.2 4.8 0.00 0.41 0.38 79 1005.2
20210414062738 14 114 4.8 4.8 0.00 0.41 0.38 79 1005.2
20210414061959 14 113 4.8 9.7 0.00 0.41 0.38 79 1005.2
20210414061410 15 113 4.8 9.7 0.00 0.41 0.38 79 1005.2
20210414060905 15 115 8.0 11.3 0.00 0.41 0.38 78 1005.2
20210414060448 15 108 6.4 11.3 0.00 0.41 0.38 78 1005.2
20210414060124 15 104 6.4 9.7 0.00 0.41 0.38 78 1005.1
20210414055921 15 106 4.8 4.8 0.00 0.41 0.38 77 1005.1
20210414054954 15 73 3.2 4.8 0.00 0.41 0.38 76 1005.1
20210414054420 16 62 3.2 4.8 0.00 0.41 0.38 75 1005.1
20210414053912 16 71 3.2 4.8 0.00 0.41 0.38 75 1005.0
20210414053407 16 67 3.2 4.8 0.00 0.41 0.38 75 1005.0
20210414052921 16 52 3.2 4.8 0.00 0.41 0.38 75 1004.9
20210414052822 16 33 3.2 4.8 0.00 0.41 0.38 74 1004.8
20210414052141 16 39 3.2 4.8 0.00 0.41 0.38 74 1004.7
20210414051421 16 15 3.2 4.8 0.00 0.41 0.38 74 1004.6
20210414050910 16 39 3.2 8.0 0.00 0.41 0.38 74 1004.6
20210414050432 16 26 4.8 8.0 0.00 0.41 0.38 73 1004.6
20210414050200 17 16 4.8 9.7 0.00 0.41 0.38 74 1004.7
20210414050028 17 13 3.2 8.0 0.00 0.41 0.38 73 1004.7
20210414045211 17 23 4.8 8.0 0.00 0.41 0.38 73 1004.7
20210414044421 17 7 4.8 8.0 0.00 0.41 0.38 72 1004.7
20210414043906 17 10 4.8 8.0 0.00 0.41 0.38 72 1004.7
20210414043416 17 34 3.2 4.8 0.00 0.41 0.38 70 1004.7
20210414043023 17 356 3.2 9.7 0.00 0.41 0.38 70 1004.6
20210414042838 17 26 4.8 8.0 0.00 0.41 0.38 69 1004.6
20210414042028 17 334 4.8 9.7 0.00 0.43 0.38 69 1004.6
20210414041411 17 320 3.2 11.3 0.00 0.43 0.38 68 1004.5
20210414040906 18 324 4.8 9.7 0.00 0.43 0.38 69 1004.5
20210414040556 18 264 4.8 4.8 0.00 0.43 0.38 68 1004.5
20210414040150 18 344 3.2 9.7 0.00 0.43 0.38 68 1004.5
20210414035945 18 290 4.8 11.3 0.00 0.43 0.38 66 1004.5
20210414035128 18 302 3.2 8.0 0.00 0.43 0.38 67 1004.4
20210414034411 18 312 3.2 8.0 0.00 0.43 0.38 66 1004.3
20210414033906 18 327 3.2 4.8 0.00 0.43 0.38 68 1004.3
20210414033537 18 243 1.6 4.8 0.00 0.43 0.38 67 1004.3
20210414033256 18 284 3.2 9.7 0.00 0.43 0.38 68 1004.3
20210414033058 17 119 0.0 4.8 0.00 0.43 0.38 68 1004.3
20210414032239 17 43 3.2 4.8 0.00 0.43 0.38 69 1004.3
20210414031417 17 73 0.0 4.8 0.00 0.43 0.38 71 1004.3
20210414030905 16 97 3.2 4.8 0.00 0.43 0.38 70 1004.3
20210414030415 16 122 3.2 11.3 0.00 0.43 0.38 72 1004.2
20210414030040 16 111 3.2 8.0 0.00 0.43 0.38 72 1004.2
20210414025858 16 128 4.8 11.3 0.00 0.99 0.38 71 1004.1
20210414025106 16 88 6.4 12.9 0.00 0.99 0.38 73 1004.2
20210414024422 16 105 4.8 11.3 0.00 0.99 0.38 78 1004.1
20210414023905 15 113 1.6 8.0 0.00 0.99 0.38 79 1004.0
20210414023405 15 99 8.0 14.5 0.00 0.99 0.38 78 1004.1
20210414023035 15 105 3.2 9.7 0.00 0.99 0.38 79 1004.1
20210414022843 15 128 3.2 12.9 0.00 0.99 0.38 79 1004.1
20210414022131 15 131 4.8 11.3 0.00 0.99 0.38 78 1004.1
20210414021408 16 132 4.8 11.3 0.00 0.99 0.38 77 1004.1
20210414020905 16 95 8.0 16.1 0.00 0.99 0.38 77 1004.1
20210414020416 15 87 4.8 11.3 0.00 0.99 0.38 75 1004.0
20210414015919 16 77 4.8 8.0 0.00 0.99 0.38 71 1003.9
20210414015145 16 67 3.2 9.7 0.00 0.99 0.38 71 1003.9
20210414014406 16 89 4.8 11.3 0.00 0.99 0.38 70 1003.8
20210414013907 16 73 8.0 16.1 0.00 0.99 0.38 68 1003.7
20210414013412 16 88 8.0 14.5 0.00 0.99 0.38 68 1003.7
20210414012854 16 127 6.4 16.1 0.00 0.99 0.38 68 1003.5
20210414012024 16 141 6.4 14.5 0.00 0.99 0.38 68 1003.5
20210414011414 16 99 8.0 14.5 0.00 0.99 0.38 69 1003.5
20210414010910 16 107 9.7 22.5 0.00 0.99 0.38 70 1003.5
20210414010409 17 116 8.0 19.3 0.00 0.99 0.38 70 1003.4
20210414010113 16 136 6.4 19.3 0.00 0.99 0.38 70 1003.3
20210414005345 16 109 9.7 19.3 0.00 0.99 0.38 68 1003.4
20210414004415 16 90 9.7 20.9 0.00 0.99 0.38 68 1003.3
20210414003915 17 113 6.4 24.1 0.00 0.99 0.38 68 1003.3
20210414003425 16 93 6.4 16.1 0.00 0.99 0.38 67 1003.3
20210414003031 17 98 8.0 16.1 0.00 0.99 0.38 65 1003.4
20210414002022 16 118 8.0 19.3 0.00 0.99 0.38 65 1003.4
20210414001405 16 133 9.7 20.9 0.00 0.99 0.38 65 1003.4
20210414000907 16 96 6.4 19.3 0.00 0.99 0.38 66 1003.5
20210414000417 16 123 6.4 16.1 0.00 0.99 0.38 68 1003.4
20210413235436 16 130 11.3 19.3 0.00 0.99 0.38 66 1003.3
20210413234414 16 98 8.0 19.3 0.00 0.99 0.38 66 1003.2
20210413233907 16 104 8.0 20.9 0.00 0.99 0.38 67 1003.1
20210413233421 16 108 6.4 16.1 0.00 0.99 0.38 67 1003.1
20210413232948 16 103 6.4 16.1 0.00 0.99 0.38 67 1003.1
20210413232123 16 145 4.8 16.1 0.00 0.99 0.38 67 1003.2
20210413231420 16 134 6.4 12.9 0.00 0.99 0.38 69 1003.1
20210413230904 16 158 4.8 16.1 0.00 0.99 0.38 68 1003.0
20210413230418 16 117 4.8 19.3 0.00 0.99 0.38 69 1003.0
20210413230216 16 133 9.7 22.5 0.00 0.99 0.38 68 1003.0
20210413225929 16 119 8.0 22.5 0.00 0.99 0.38 68 1002.9
20210413225433 16 133 6.4 14.5 0.00 0.99 0.38 69 1002.9
20210413224524 16 147 6.4 12.9 0.00 0.99 0.38 70 1002.8
20210413223906 16 130 4.8 11.3 0.00 0.99 0.38 71 1002.7
20210413223412 16 104 8.0 16.1 0.00 0.99 0.38 71 1002.6
20210413223047 16 105 4.8 19.3 0.00 0.99 0.38 71 1002.5
20210413222929 16 125 8.0 14.5 0.00 1.02 0.38 70 1002.4
20210413222204 16 125 4.8 14.5 0.00 1.02 0.38 73 1002.4
20210413221409 15 102 1.6 14.5 0.00 1.02 0.38 73 1002.6
20210413220910 15 127 4.8 16.1 0.00 1.02 0.38 73 1002.6
20210413220522 15 113 6.4 20.9 0.00 1.02 0.38 74 1002.6
20210413220221 15 120 9.7 24.1 0.00 1.02 0.38 75 1002.6
20210413220033 15 144 6.4 14.5 0.00 1.02 0.38 76 1002.7
20210413215220 15 148 9.7 20.9 0.00 1.02 0.38 76 1002.7
20210413214417 15 135 8.0 19.3 0.00 1.02 0.38 77 1002.6
20210413213904 14 126 11.3 20.9 0.00 1.02 0.38 78 1002.6
20210413213419 14 141 11.3 22.5 0.00 1.02 0.38 80 1002.6
20210413213036 14 81 6.4 20.9 0.00 1.02 0.38 81 1002.6
20210413212902 14 140 8.0 19.3 0.00 1.02 0.38 81 1002.7
20210413212128 14 120 9.7 19.3 0.00 1.02 0.38 81 1002.7
20210413211411 14 73 3.2 11.3 0.00 1.02 0.38 84 1002.7
20210413210912 13 101 3.2 12.9 0.00 1.02 0.38 85 1002.6
20210413210409 13 114 4.8 9.7 0.00 1.02 0.38 86 1002.5
20210413205933 13 146 6.4 14.5 0.00 1.02 0.38 86 1002.4
20210413205749 13 123 6.4 16.1 0.00 1.02 0.38 87 1002.4
20210413204955 13 158 4.8 14.5 0.00 1.02 0.38 88 1002.4
20210413204409 12 100 4.8 9.7 0.00 1.02 0.38 88 1002.3
20210413203919 12 110 3.2 11.3 0.00 1.02 0.38 89 1002.2
20210413203409 12 114 3.2 14.5 0.00 1.02 0.38 89 1002.2
20210413203111 11 139 4.8 12.9 0.00 1.02 0.38 89 1002.1
20210413202856 11 96 3.2 12.9 0.00 1.02 0.38 89 1002.2
20210413202122 11 67 1.6 4.8 0.00 1.02 0.38 89 1002.1
20210413201413 11 118 4.8 9.7 0.00 1.02 0.38 89 1002.1
20210413200915 11 104 4.8 14.5 0.00 1.02 0.38 89 1002.1
20210413200449 11 94 4.8 12.9 0.00 1.02 0.38 89 1002.1
20210413200228 11 120 8.0 12.9 0.00 1.02 0.38 89 1002.1
20210413195928 11 101 3.2 9.7 0.00 1.02 0.38 89 1002.1
20210413194906 11 117 9.7 16.1 0.00 1.02 0.38 89 1002.1
20210413194425 11 104 8.0 19.3 0.00 1.02 0.38 90 1002.0
20210413193908 11 59 8.0 19.3 0.00 1.02 0.38 90 1001.9
20210413193410 11 127 6.4 19.3 0.00 1.02 0.38 90 1001.9
20210413193113 11 107 6.4 14.5 0.00 1.02 0.38 91 1001.8
20210413192903 11 98 4.8 16.1 0.00 1.02 0.38 91 1001.7
20210413192232 11 109 6.4 19.3 0.00 1.02 0.38 91 1001.7
20210413191422 11 105 4.8 14.5 0.00 1.02 0.38 91 1001.7
20210413190910 11 99 4.8 12.9 0.00 1.02 0.38 91 1001.6
20210413190417 11 101 4.8 12.9 0.00 1.02 0.38 91 1001.6
20210413190052 11 88 4.8 12.9 0.00 1.02 0.38 90 1001.5
20210413185837 11 109 8.0 16.1 0.00 1.02 0.38 90 1001.6
20210413185121 11 98 11.3 19.3 0.00 1.02 0.38 90 1001.6
20210413184426 11 102 12.9 19.3 0.03 1.02 0.38 90 1001.6
20210413183905 11 91 9.7 16.1 0.03 1.02 0.38 91 1001.6
20210413183416 11 89 6.4 12.9 0.03 1.02 0.38 91 1001.6
20210413182942 11 96 11.3 19.3 0.03 1.02 0.38 91 1001.6
20210413182832 11 94 9.7 14.5 0.03 1.02 0.38 91 1001.7
20210413182028 11 110 9.7 14.5 0.03 1.02 0.38 91 1001.7
20210413181409 11 115 9.7 14.5 0.03 1.02 0.38 90 1001.8
20210413180916 11 103 8.0 14.5 0.03 1.02 0.38 90 1001.8
20210413180413 11 110 8.0 11.3 0.03 1.02 0.38 90 1001.8
20210413175911 11 131 4.8 8.0 0.03 1.02 0.38 90 1001.8
20210413175733 11 185 4.8 8.0 0.03 1.02 0.38 90 1001.9
20210413174941 11 137 1.6 9.7 0.03 1.02 0.38 91 1001.9
20210413174410 11 129 6.4 11.3 0.00 0.99 0.36 91 1001.9
20210413173905 11 71 4.8 12.9 0.00 0.99 0.36 91 1002.0
20210413173416 11 111 4.8 12.9 0.00 0.99 0.36 91 1001.9
20210413173025 11 117 4.8 11.3 0.00 0.99 0.36 91 1001.9
20210413172852 11 112 3.2 9.7 0.00 0.99 0.36 91 1001.9
20210413172219 11 106 8.0 12.9 0.00 0.99 0.36 91 1001.9
20210413171426 11 107 4.8 9.7 0.00 0.99 0.36 91 1001.9
20210413170906 11 104 4.8 11.3 0.00 0.99 0.36 91 1001.9
20210413170419 11 120 4.8 9.7 0.00 0.99 0.36 90 1001.9
20210413170109 11 110 8.0 12.9 0.03 0.99 0.36 90 1001.9
20210413165835 11 114 11.3 14.5 0.03 0.99 0.36 90 1001.9
20210413165107 11 115 11.3 16.1 0.03 0.99 0.36 90 1002.0
20210413164409 11 115 11.3 16.1 0.03 0.99 0.36 91 1002.1
20210413163907 11 100 11.3 14.5 0.03 0.99 0.36 91 1002.1
20210413163419 11 101 11.3 16.1 0.03 0.99 0.36 91 1002.0
20210413163146 11 109 11.3 16.1 0.03 0.99 0.36 91 1002.1
20210413162944 11 106 11.3 16.1 0.03 0.99 0.36 91 1002.2
20210413162242 11 110 8.0 12.9 0.03 0.99 0.36 91 1002.2
20210413161418 11 114 4.8 9.7 0.03 0.99 0.36 91 1002.2
20210413160905 11 139 1.6 3.2 0.03 0.99 0.36 91 1002.2
20210413160454 11 139 0.0 1.6 0.03 0.99 0.36 91 1002.1
20210413160136 11 139 1.6 3.2 0.00 0.97 0.33 91 1002.2
20210413155934 11 139 3.2 4.8 0.00 0.97 0.33 91 1002.2
20210413155222 11 143 3.2 4.8 0.00 0.97 0.33 91 1002.3
20210413154408 11 154 1.6 3.2 0.00 0.97 0.33 91 1002.4
20210413153907 11 137 1.6 4.8 0.00 0.97 0.33 91 1002.5
20210413153417 11 134 1.6 3.2 0.00 0.97 0.33 91 1002.6
20210413153056 11 126 1.6 1.6 0.00 0.97 0.33 91 1002.6
20210413152917 11 126 0.0 1.6 0.00 0.97 0.33 91 1002.6
20210413152129 11 126 3.2 4.8 0.00 0.97 0.33 91 1002.8
20210413151419 11 132 3.2 4.8 0.03 0.97 0.33 92 1002.9
20210413150906 11 141 1.6 3.2 0.03 0.97 0.33 92 1003.0
20210413150538 11 132 1.6 3.2 0.03 0.97 0.33 91 1003.1
20210413150214 11 132 1.6 4.8 0.05 0.97 0.33 91 1003.2
20210413145345 11 163 1.6 3.2 0.05 0.97 0.33 91 1003.2
20210413144432 11 171 1.6 3.2 0.08 0.97 0.33 91 1003.2
20210413143905 11 171 1.6 3.2 0.08 0.97 0.33 91 1003.3
20210413143414 11 204 0.0 4.8 0.08 0.97 0.33 91 1003.4
20210413143131 11 247 0.0 1.6 0.08 0.97 0.33 91 1003.5
20210413142917 11 175 0.0 3.2 0.08 0.97 0.33 91 1003.4
20210413141911 11 184 0.0 4.8 0.10 0.97 0.33 91 1003.6
20210413141411 11 301 0.0 3.2 0.10 0.94 0.30 91 1003.8
20210413140909 11 195 0.0 3.2 0.18 0.94 0.30 91 1003.8
20210413140415 11 218 0.0 3.2 0.28 0.94 0.30 91 1003.9
20210413140119 11 265 3.2 8.0 0.28 0.94 0.30 91 1004.0
20210413135954 11 247 3.2 12.9 0.25 0.91 0.28 91 1003.9
20210413135311 11 248 1.6 8.0 0.25 0.91 0.28 91 1003.9
20210413134415 11 161 1.6 8.0 0.23 0.89 0.25 91 1003.8
20210413133905 11 34 4.8 16.1 0.25 0.89 0.25 91 1003.8
20210413133405 11 162 3.2 9.7 0.25 0.89 0.25 91 1003.9
20210413133115 11 187 3.2 19.3 0.25 0.89 0.25 91 1004.0
20210413132911 12 159 4.8 19.3 0.25 0.89 0.25 91 1004.1
20210413132052 12 252 3.2 11.3 0.23 0.86 0.23 91 1004.1
20210413131429 12 225 3.2 32.2 0.20 0.84 0.20 91 1004.2
20210413130905 12 307 16.1 29.0 0.13 0.76 0.13 91 1004.1
20210413130409 12 243 4.8 19.3 0.03 0.66 0.03 90 1003.9
20210413130032 12 243 1.6 4.8 0.03 0.66 0.03 91 1003.0
20210413125704 12 223 0.0 4.8 0.03 0.66 0.03 91 1003.1
20210413124408 12 254 1.6 4.8 0.03 0.66 0.03 91 1003.3
20210413123914 12 349 3.2 4.8 0.00 0.64 0.00 91 1003.1
20210413123418 12 359 3.2 12.9 0.00 0.64 0.00 91 1003.0
20210413123131 11 270 0.0 1.6 0.00 0.64 0.00 91 1003.2
20210413122449 11 271 3.2 4.8 0.00 0.64 0.00 91 1003.3
20210413121421 11 222 0.0 3.2 0.00 0.64 0.00 91 1003.2
20210413120907 11 222 0.0 0.0 0.00 0.64 0.00 91 1003.2
20210413120416 11 222 0.0 0.0 0.00 0.64 0.00 91 1003.3
20210413115840 11 222 0.0 0.0 0.00 0.64 0.66 91 1003.5
20210413114414 11 222 0.0 0.0 0.00 0.66 0.66 91 1003.5